www.pogodaiklimat.ru

Погода и климат >> Архив погоды >> Норвегия >> Карасйок


ПОГОДА в Карасйоке

  • Прогноз погоды в Карасйоке
  • Монитор погоды в Карасйоке

АРХИВ ПОГОДЫ в Карасйоке

Время (UTC), дата Ветер
(напр.,м/с)
 
Видим.   Явления Облачность Т
(С)
Тd
(С)
f
(%)
Тe
(С)
Тes
(С)
Комфортность P
(гПа)
Po
(гПа)
Тmin
(С)
Tmax
(С)
R
(мм)
R24
(мм)
S
(см)
01 14.07 СВ 1
{3}
н/о н/о +7.2 +6.2 93 +6 +6 1015.9 999.9
02 14.07 СВ 2
{3}
н/о н/о +7.7 +6.0 89 +6 +6 1016.0 1000.0
03 14.07 В 1
{3}
н/о н/о +8.2 +5.7 84 +7 +7 1015.7 999.8
04 14.07 СВ 1
{3}
н/о н/о +8.8 +5.2 78 +8 +8 1015.7 999.8
05 14.07 СВ 2
{3}
н/о н/о +9.3 +5.3 76 +8 +8 1015.8 999.9
06 14.07 СВ 2
{4}
20 км 10/10 1500 м
[Sc]
+9.6 +5.8 77 +8 +8 1015.5 999.6 +7.0 +13.6
07 14.07 СВ 2
{4}
н/о н/о +9.8 +5.6 75 +8 +8 1015.3 999.5
08 14.07 С 1
{3}
н/о н/о +10.0 +5.4 73 +10 +10 1015.4 999.6
09 14.07 С 2
{4}
н/о н/о +10.6 +5.0 68 +9 +9 1015.4 999.6
10 14.07 С 2
{4}
н/о н/о +11.2 +5.1 66 +10 +10 1015.3 999.5
11 14.07 СВ 2
{5}
н/о н/о +11.5 +4.5 62 +11 +11 1015.1 999.4
12 14.07 СЗ 3
{5}
25 км 10/10 1500 м
[Sc]
+11.5 +4.0 60 +10 +10 1014.9 999.2
13 14.07 СВ 2
{5}
н/о н/о +11.2 +3.7 60 +10 +10 1014.9 999.1
14 14.07 СВ 2
{4}
н/о н/о +11.6 +3.1 56 +11 +11 1014.8 999.1
15 14.07 СЗ 2
{4}
н/о н/о +13.0 +2.6 49 +13 +13 1014.6 998.9
16 14.07 С 4
{7}
н/о н/о +11.6 +3.4 57 +10 +10 1014.6 998.9
17 14.07 С 3
{6}
н/о н/о +11.0 +3.3 59 +9 +9 1014.7 998.9
18 14.07 СВ 2
{7}
25 км 10/10 1500 м
[Sc]
+10.6 +3.9 63 +9 +9 1014.5 998.7 +9.6 +13.1
19 14.07 СВ 2
{5}
н/о н/о +9.9 +4.9 71 +9 +9 1014.6 998.8
20 14.07 В 1
{4}
н/о н/о +8.7 +6.7 87 +8 +8 1014.8 998.9
21 14.07 В 2
{3}
н/о н/о +8.0 +7.4 96 +6 +6 1015.0 999.1
22 14.07 СВ 2
{3}
н/о н/о +7.5 +7.2 98 +5 +5 1015.2 999.2
23 14.07 СВ 1
{2}
н/о н/о +7.0 +6.9 99 +6 +6 1015.0 999.0
00 15.07 С 1
{5}
н/о н/о +6.7 +6.6 99 +5 +5 1015.1 999.1 0.1
01 15.07 штиль 0
{1}
н/о н/о +6.0 +5.9 99 +5 +5 1015.0 998.9
02 15.07 штиль 0
{1}
н/о н/о +6.7 +6.6 99 +6 +6 1015.0 999.0
03 15.07 В 1
{1}
н/о н/о +7.3 +7.2 99 +6 +6 1014.9 998.9
04 15.07 ЮВ 1
{1}
н/о н/о +7.8 +6.9 94 +7 +7 1014.7 998.8
05 15.07 В 1
{1}
н/о н/о +8.5 +6.0 84 +8 +8 1014.6 998.7
06 15.07 З 1
{2}
20 км 10/10 1500 м
[Cb calv]
+9.0 +6.4 84 +8 +8 1014.5 998.6 +5.9 +10.6 0.1
07 15.07 ЮВ 1
{4}
н/о н/о +9.4 +5.0 74 +9 +9 1014.2 998.4
08 15.07 В 1
{3}
н/о н/о +10.1 +5.3 72 +10 +10 1014.2 998.4
09 15.07 Ю 2
{3}
н/о н/о +10.2 +4.4 67 +9 +9 1014.2 998.4 0.1
10 15.07 Ю 1
{3}
н/о н/о +10.9 +5.0 67 +11 +11 1014.0 998.2
11 15.07 Ю 2
{3}
н/о н/о +11.8 +5.2 64 +11 +11 1013.8 998.1
12 15.07 Ю 2
{4}
20 км 8/5 1500 м
[Cu med, cong Cc]
+12.9 +6.3 64 +12 +16 1013.7 998.0 0.1
13 15.07 З 1
{4}
н/о н/о +12.0 +5.0 62 +12 +12 1013.6 997.9
14 15.07 СВ 3
{5}
н/о н/о +11.2 +6.2 71 +9 +9 1013.9 998.2
15 15.07 В 1
{3}
н/о н/о +12.3 +5.9 65 +12 +12 1013.8 998.1
16 15.07 В 1
{3}
н/о н/о +12.2 +4.9 61 +12 +12 1013.9 998.2
17 15.07 С 3
{4}
н/о н/о +11.6 +5.7 67 +10 +10 1014.0 998.3
18 15.07 С 2
{5}
20 км 10/10 1500 м
[Sc]
+11.5 +6.4 71 +10 +10 1014.0 998.3 +9.0 +13.1 0.1
19 15.07 ЮЗ 2
{3}
н/о н/о +10.5 +7.0 79 +9 +9 1014.4 998.6
20 15.07 штиль 0
{3}
н/о н/о +9.0 +8.9 99 +8 +8 1014.9 999.0 2
21 15.07 С 1
{1}
н/о н/о +8.8 +8.7 99 +8 +8 1015.0 999.1 0.7
22 15.07 штиль 0
{2}
н/о н/о +8.6 +8.5 99 +8 +8 1015.2 999.3 0.2
23 15.07 СЗ 1
{1}
н/о н/о +8.3 +8.2 99 +7 +7 1015.4 999.5 0.2
00 16.07 СВ 1
{3}
н/о н/о +8.0 +7.9 99 +7 +7 1015.6 999.7 0.2
01 16.07 ЮЗ 1
{1}
н/о н/о +7.9 +7.8 99 +7 +7 1015.9 999.9
02 16.07 штиль 0
{1}
н/о н/о +8.0 +7.9 99 +7 +7 1016.2 1000.2
03 16.07 СВ 1
{2}
н/о н/о +8.4 +8.3 99 +7 +7 1016.3 1000.4
04 16.07 СВ 1
{2}
н/о н/о +9.4 +9.3 99 +9 +9 1016.5 1000.6 0.1
05 16.07 В 2
{4}
н/о н/о +10.0 +7.8 86 +8 +8 1016.3 1000.5
06 16.07 В 2
{4}
20 км 10/10 1500 м
[Sc]
+10.8 +7.1 78 +10 +10 1016.4 1000.6 +7.8 +11.5 3
07 16.07 В 2
{4}
н/о н/о +12.0 +6.1 67 +11 +11 1016.3 1000.6
08 16.07 В 2
{4}
н/о н/о +12.4 +5.3 62 +12 +12 1016.1 1000.4
09 16.07 В 3
{4}
н/о н/о +12.5 +4.5 58 +11 +11 1016.1 1000.4
10 16.07 В 1
{6}
н/о н/о +14.2 +4.5 52 +15 +15 1015.9 1000.3
11 16.07 СВ 2
{5}
н/о н/о +13.4 +3.8 52 +13 +13 1016.0 1000.3
12 16.07 В 4
{6}
20 км 10/10 1500 м
[Sc]
+13.4 +3.5 51 +12 +12 1016.0 1000.3
13 16.07 В 4
{6}
н/о н/о +14.2 +3.7 49 +13 +13 1015.9 1000.3
14 16.07 В 4
{7}
н/о н/о +14.1 +3.6 49 +13 +13 1016.0 1000.4 0.1
15 16.07 В 4
{8}
н/о н/о +13.7 +3.5 50 +12 +12 1016.1 1000.5
16 16.07 В 5
{8}
н/о н/о +12.1 +3.4 55 +10 +10 1016.4 1000.7
17 16.07 В 4
{7}
н/о н/о +12.4 +3.6 55 +11 +11 1016.6 1000.9
18 16.07 СВ 5
{8}
>70 км ясно +11.2 +3.7 60 +9 +9 1017.1 1001.3 +10.8 +14.7 0.1
19 16.07 СВ 4
{7}
н/о н/о +9.4 +4.2 70 +7 +7 1017.2 1001.3
20 16.07 В 3
{5}
н/о н/о +8.8 +5.0 77 +6 +6 1017.2 1001.3
21 16.07 В 2
{4}
н/о н/о +8.4 +5.3 81 +7 +7 1017.4 1001.4
22 16.07 В 1
{4}
н/о н/о +7.9 +6.0 88 +7 +7 1017.5 1001.5
23 16.07 СВ 1
{3}
н/о н/о +7.7 +6.0 89 +7 +7 1017.4 1001.4
00 17.07 З 1
{7}
н/о н/о +7.4 +6.8 96 +6 +6 1017.0 1001.0
01 17.07 ЮЗ 1
{2}
н/о н/о +7.2 +7.1 99 +6 +6 1016.9 1000.9
02 17.07 Ю 1
{2}
н/о н/о +7.0 +6.9 99 +6 +6 1016.7 1000.7 0.1
03 17.07 ЮЗ 1
{2}
н/о н/о +7.2 +7.1 99 +6 +6 1016.4 1000.4 0.3
04 17.07 ЮЗ 1
{3}
н/о н/о +7.8 +7.7 99 +7 +7 1016.0 1000.0 0.2
05 17.07 ЮЗ 2
{3}
н/о н/о +8.4 +8.3 99 +6 +6 1015.5 999.6 0.1
06 17.07 ЮЗ 2
{3}
25 км {дождь} 10/10 1500 м
[Frnb]
+9.5 +9.4 99 +8 +8 1014.9 999.0 +7.0 +11.3 0.8
07 17.07 З 2
{4}
н/о н/о +10.1 +9.0 93 +8 +8 1014.4 998.6
08 17.07 СЗ 3
{6}
н/о н/о +10.6 +6.8 77 +9 +9 1014.1 998.3
09 17.07 СЗ 3
{6}
н/о н/о +11.4 +6.3 71 +10 +10 1013.7 998.0
10 17.07 С 4
{7}
н/о н/о +11.7 +5.6 66 +10 +10 1013.5 997.8
11 17.07 СЗ 4
{7}
н/о н/о +11.5 +6.2 70 +9 +9 1013.4 997.7
12 17.07 СЗ 4
{7}
20 км 10/10 1500 м
[Sc]
+12.3 +5.9 65 +10 +10 1013.0 997.3
13 17.07 С 4
{7}
н/о н/о +12.7 +5.9 63 +11 +11 1012.6 997.0
14 17.07 СЗ 3
{7}
н/о н/о +13.2 +5.9 61 +12 +12 1012.5 996.9
15 17.07 СЗ 3
{6}
н/о н/о +11.9 +6.4 69 +10 +10 1012.8 997.1
16 17.07 С 3
{5}
н/о н/о +12.1 +6.0 66 +11 +11 1012.8 997.1
17 17.07 С 2
{5}
н/о н/о +11.6 +5.7 67 +11 +11 1013.1 997.4
18 17.07 С 2
{7}
20 км 9/6 1500 м
[Sc Ac As Ci fib]
+10.7 +5.9 72 +10 +10 1013.5 997.7 +9.4 +13.4
19 17.07 С 1
{3}
н/о н/о +10.2 +6.0 75 +10 +10 1013.6 997.8
20 17.07 СВ 3
{4}
н/о н/о +9.3 +6.2 81 +7 +7 1013.8 998.0
21 17.07 СВ 1
{4}
н/о н/о +8.5 +6.6 88 +8 +8 1014.1 998.2
22 17.07 В 1
{1}
н/о н/о +8.0 +7.9 99 +7 +7 1014.5 998.6
23 17.07 В 1
{2}
н/о н/о +7.6 +7.5 99 +7 +7 1014.7 998.7 0.1
00 18.07 В 1
{4}
н/о н/о +7.5 +7.4 99 +6 +6 1014.9 998.9
01 18.07 В 1
{2}
н/о н/о +7.3 +7.2 99 +6 +6 1014.9 998.9 0.1
02 18.07 В 1
{2}
н/о н/о +7.8 +7.7 99 +7 +7 1015.1 999.1
03 18.07 С 1
{2}
н/о н/о +8.4 +8.3 99 +7 +7 1015.3 999.4
04 18.07 В 2
{3}
н/о н/о +9.7 +9.6 99 +8 +8 1015.6 999.7
05 18.07 В 2
{4}
н/о н/о +10.7 +9.8 94 +9 +9 1015.5 999.7
06 18.07 С 1
{4}
25 км 8/8 1500 м
[Sc]
+12.3 +9.9 85 +12 +13 1015.6 999.9 +7.3 +12.3 0.2
07 18.07 СЗ 1
{2}
н/о н/о +14.9 +9.7 71 +15 +15 1015.4 999.8
08 18.07 СВ 1
{3}
н/о н/о +15.3 +9.0 66 +16 +16 1015.3 999.7
09 18.07 Ю 4
{7}
н/о н/о +14.1 +7.6 65 +13 +13 1015.6 1000.0 0.1
10 18.07 В 2
{5}
н/о н/о +14.1 +9.7 75 +14 +14 1016.0 1000.4
11 18.07 Ю 2
{6}
н/о н/о +16.9 +8.9 59 +17 +17 1015.9 1000.4
12 18.07 Ю 3
{7}
20 км 8/5 1500 м
[Cu med, cong Ci fib]
+17.9 +7.3 50 +18 +21 1015.7 1000.3 0.1
13 18.07 Ю 2
{7}
н/о н/о +19.8 +5.8 40 +21 +21 комфорт 1015.5 1000.2
14 18.07 В 2
{7}
н/о н/о +17.8 +5.7 45 +18 +18 1015.7 1000.3
15 18.07 В 2
{4}
н/о н/о +18.4 +6.0 44 +19 +19 1015.7 1000.3
16 18.07 н/о
17 18.07 В 2
{5}
н/о н/о +18.7 +6.2 44 +20 +20 1015.7 1000.3
18 18.07 ЮВ 3
{7}
20 км 5/5 1500 м
[Cu med, cong]
+18.0 +5.3 43 +18 +18 1015.9 1000.5 +12.3 +19.9 0.2
19 18.07 ЮВ 2
{5}
н/о н/о +17.1 +6.3 49 +17 +17 1016.2 1000.7
20 18.07 СВ 1
{4}
н/о н/о +13.3 +7.1 66 +14 +14 1016.7 1001.0
21 18.07 СВ 1
{2}
н/о н/о +10.5 +8.9 90 +10 +10 1017.0 1001.2 0.1
22 18.07 СВ 1
{2}
н/о н/о +9.1 +9.0 99 +8 +8 1017.4 1001.5
23 18.07 СВ 2
{2}
н/о н/о +8.5 +8.4 99 +6 +6 1017.7 1001.7
00 19.07 СВ 2
{5}
н/о н/о +8.4 +8.3 99 +6 +6 1017.8 1001.8
01 19.07 СВ 1
{2}
н/о н/о +10.1 +10.0 99 +9 +9 1017.5 1001.6
02 19.07 СВ 1
{2}
н/о н/о +11.1 +11.0 99 +11 +11 1017.4 1001.6
03 19.07 С 1
{4}
н/о н/о +11.8 +11.7 99 +12 +12 1017.2 1001.4
04 19.07 В 1
{2}
н/о н/о +12.4 +12.3 99 +12 +12 1016.8 1001.1
05 19.07 С 1
{3}
н/о н/о +12.9 +12.6 98 +13 +13 1016.4 1000.7
06 19.07 СВ 1
{4}
н/о н/о +14.0 +11.9 87 +14 +14 1016.0 1000.4 +8.2 +18.1 0.1
07 19.07 ЮВ 1
{2}
н/о н/о +14.5 +11.3 81 +15 +15 1015.8 1000.2
08 19.07 ЮЗ 1
{4}
н/о н/о +14.2 +13.6 96 +14 +14 1015.3 999.7 0.1
09 19.07 ЮВ 3
{6}
н/о н/о +13.8 +12.2 90 +13 +13 1015.4 999.8
10 19.07 В 3
{6}
н/о н/о +14.2 +12.1 87 +13 +13 1015.3 999.7
11 19.07 В 3
{5}
н/о н/о +14.5 +12.0 85 +14 +14 1015.3 999.7
12 19.07 В 4
{6}
20 км 10/10 1500 м
[Sc]
+14.7 +11.8 83 +13 +13 1015.2 999.6 0.1
13 19.07 В 3
{5}
н/о н/о +14.7 +11.9 83 +14 +14 1015.0 999.4
14 19.07 В 2
{5}
н/о н/о +14.9 +11.9 82 +15 +15 1014.6 999.0
15 19.07 В 3
{5}
н/о н/о +15.7 +12.1 79 +15 +15 1014.2 998.7
17 19.07 В 3
{5}
н/о н/о +15.6 +11.8 78 +15 +15 1013.8 998.3
18 19.07 В 3
{5}
>70 км ясно +16.0 +12.2 78 +16 +16 1013.8 998.3 +13.1 +16.5 0.3
19 19.07 В 3
{5}
н/о н/о +15.6 +11.8 78 +15 +15 1013.6 998.1
20 19.07 В 1
{4}
н/о н/о +13.6 +13.1 97 +14 +14 1013.8 998.2
21 19.07 СВ 2
{3}
н/о н/о +12.3 +12.2 99 +11 +11 1014.2 998.5
22 19.07 СВ 1
{2}
н/о н/о +10.6 +10.5 99 +10 +10 1014.3 998.5
23 19.07 В 1
{2}
н/о н/о +8.9 +8.8 99 +8 +8 1014.5 998.6
00 20.07 СВ 1
{5}
н/о н/о +7.2 +7.1 99 +6 +6 1014.8 998.8
01 20.07 штиль 0
{1}
н/о н/о +7.9 +7.8 99 +7 +7 1014.6 998.7
02 20.07 штиль 0
{1}
н/о н/о +8.5 +8.4 99 +7 +7 1014.4 998.5
03 20.07 ЮЗ 1
{2}
н/о н/о +9.8 +9.7 99 +9 +9 1014.2 998.4
04 20.07 СВ 1
{2}
н/о н/о +13.1 +13.0 99 +13 +13 1013.6 998.0
05 20.07 В 3
{4}
н/о н/о +14.9 +13.3 90 +14 +14 1013.3 997.8
06 20.07 С 1
{4}
>70 км ясно +17.5 +13.2 76 +19 +24 1012.9 997.5 +7.2 +17.6
07 20.07 З 1
{2}
н/о н/о +20.3 +12.0 59 +23 +23 комфорт 1012.7 997.5
08 20.07 ЮЗ 2
{5}
н/о н/о +21.7 +11.1 51 +24 +24 комфорт 1012.6 997.4
09 20.07 ЮЗ 3
{7}
н/о н/о +23.2 +9.6 42 +25 +25 комфорт 1012.0 996.9
10 20.07 ЮЗ 2
{7}
н/о н/о +22.1 +7.9 40 +23 +23 комфорт 1012.1 997.0
11 20.07 ЮЗ 2
{7}
н/о н/о +23.7 +7.8 36 +24 +24 комфорт 1012.3 997.2
12 20.07 ЮЗ 4
{7}
н/о н/о +23.7 +6.9 34 +24 +24 комфорт 1012.3 997.2
13 20.07 ЮЗ 1
{8}
н/о н/о +23.8 +7.9 36 +24 +24 комфорт 1012.1 997.0
14 20.07 Ю 1
{7}
н/о н/о +25.3 +7.0 31 +25 +25 комфорт 1011.8 996.8
15 20.07 ЮВ 1
{9}
н/о н/о +24.3 +7.9 35 +25 +25 комфорт 1011.9 996.9
16 20.07 ЮЗ 2
{9}
н/о н/о +24.9 +7.1 32 +25 +25 комфорт 1011.9 996.9 0.1
17 20.07 Ю 1
{3}
н/о н/о +20.9 +9.8 49 +24 +24 комфорт 1012.2 997.0
18 20.07 СВ 1
{9}
20 км 8/8 1500 м
[Cu hum Ac inh]
+23.4 +8.7 39 +25 +25 комфорт 1012.2 997.1 +17.5 +25.3 0.1
19 20.07 С 1
{4}
н/о н/о +19.7 +9.6 52 +22 +22 комфорт 1012.9 997.6
20 20.07 Ю 2
{3}
н/о н/о +17.1 +10.5 65 +17 +17 1013.4 998.0
21 20.07 ЮЗ 1
{3}
н/о н/о +15.3 +11.9 80 +16 +16 1013.9 998.4
22 20.07 ЮЗ 1
{2}
н/о н/о +12.1 +12.0 99 +12 +12 1014.6 998.9
23 20.07 ЮЗ 1
{2}
н/о н/о +10.8 +10.7 99 +10 +10 1014.8 999.0
00 21.07 ЮЗ 1
{4}
н/о н/о +9.3 +10 +10 1015.1 999.2

 

Местоположение метеостанции Карасйок (Норвегия): широта 69.56 долгота 25.50 высота над уровнем моря 131 м.

В архиве по умолчанию представлена погода в Карасйоке за последнюю неделю. Архивные данные за месяц целиком и за предыдущие месяцы, начиная с января 2011 года, Вы можете получить, выбрав интересующий диапазон дат из раскрывающегося списка и нажав кнопку "Ввод!".


*Определитесь, кто Вы:
робот инопланетянин человек

Внимание! Время в таблицах - всемирное. Для получения местного времени необходимо прибавить поправку, которая равна 1 ч.

Смотрите также архив погоды в соседних городах и на ближайших метеорологических станциях:

Погода в Искорасе (Норвегия) (30 км)
Погода в Суовддатмохкки (Норвегия) (47 км)
Погода в Банаке (Норвегия) (59 км)
Погода в Утсйоки Кево (Финляндия) (62 км)
Погода в Утсёки Кево Кеволярви (Финляндия) (62 км)
Погода в Инари Анджели (Финляндия) (74 км)
Погода в Суоловуопми-Лулит (Норвегия) (77 км)
Погода в Кааманене (Финляндия) (84 км)
Погода в Альта аэропорту (Норвегия) (95 км)
Погода на Острове Сеиталасса (Финляндия) (105 км)

Пояснения к столбцам:

Ветер - указаны скорость ветра в м/с - средняя за 10 мин, порывы в срок и между сроками (в фигурных скобках) и направление, откуда дует ветер: С - северный, СВ - северо-восточный, В - восточный, ЮВ - юго-восточный, Ю - южный, ЮЗ - юго-западный, З - западный, СЗ - северо-западный.
Видимость - горизонтальная дальность видимости в метрах или километрах. При видимости от 1 до 10 км при отсутствии осадков обычно наблюдается дымка, при ухудшении видимости до 1 км и менее - туман. В сухую погоду видимость может ухудшаться дымом, пылью или мглою.
Явления - указаны атмосферные явления, наблюдавшиеся в срок или в последний час перед сроком; фигурными скобками обозначены явления, наблюдавшиеся между сроками (за 1-3 часа до срока); квадратными скобками обозначены град или гололедные отложения с указанием их диаметра в мм.
Облачность - указаны через наклонную черту общая и нижняя облачность в баллах и высота нижней границы облаков в метрах; квадратными скобками обозначены формы облаков: Ci - перистые, Cs - перисто-слоистые, Cc - перисто-кучевые, Ac - высококучевые, As - высокослоистые, Sc - слоисто-кучевые, Ns - слоисто-дождевые, Cu - кучевые, Cb - кучево-дождевые. Подробнее классификацию облаков см. в Атласе облаков (PDF).
T - Температура воздуха - температура, измеренная на высоте 2 м над землей.
Td - Температура точки росы - температура, при понижении до которой содержащийся в воздухе водяной пар достигнет насыщения.
f - Относительная влажность воздуха - влажноcть воздуха, измеренная на высоте 2 м над землей.
Te - Эффективная температура - температура, которую ощущает одетый по сезону человек в тени. Характеристика душности погоды. При расчете учитывается влияние влажности воздуха и скорости ветра на теплоощущения человека.
Tes - Эффективная температура на солнце - температура, которую ощущает человек, с поправкой на солнечный нагрев. Характеристика знойности погоды. Зависит от высоты солнца над горизонтом, облачности и скорости ветра. Ночью, в пасмурную погоду, а также при ветре 12 м/с и более поправка равна нулю.
P - Атмосферное давление - приведенное к уровню моря атмосферное давление.
Po - Атмосферное давление - измеренное на уровне метеостанции атмосферное давление.
Tmin - Минимальная температура - минимум температуры воздуха на высоте 2 м над землей.
Tmax - Максимальная температура - максимум температуры воздуха на высоте 2 м над землей.
R - Количество осадков - Количество выпавших осадков за период времени, мм. При наведении курсора мыши на число - период времени, за который выпало указанное количество осадков.
R24 - Количество осадков - Количество выпавших осадков за 24 часа, мм.
S - Снежный покров - Высота снежного покрова, см. При наведении курсора мыши на число - состояние снежного покрова и степень покрытия местности в баллах.